OE-11049 Weather Reports


Display with metric or nautical units.
time (UTC)temp
F
wind
direction
speed
MPH
gust
MPH
rain 1hr
in
rain 24hr
in
rain mn
in
humidity
%
barometer
mb
20260903064130 65 164 3.0 6.0 0.00 0.00 0.00 69 1021.6
20260903063517 64 170 4.0 7.0 0.00 0.00 0.00 72 1021.8
20260903062518 64 164 3.0 6.0 0.00 0.00 0.00 73 1021.8
20260903061131 63 161 3.0 6.0 0.00 0.00 0.00 74 1021.8
20260903060518 63 146 4.0 6.0 0.00 0.00 0.00 77 1021.8
20260903055517 62 144 3.0 6.0 0.00 0.00 0.00 78 1021.8
20260903054130 61 143 3.0 5.0 0.00 0.00 0.00 78 1021.8
20260903053517 61 141 4.0 6.0 0.00 0.00 0.00 79 1021.9
20260903052518 61 138 3.0 6.0 0.00 0.00 0.00 79 1021.8
20260903051131 61 147 3.0 5.0 0.00 0.00 0.00 77 1021.7
20260903050517 61 145 4.0 6.0 0.00 0.00 0.00 77 1021.6
20260903045518 61 145 4.0 5.0 0.00 0.00 0.00 78 1021.6
20260903044130 61 142 4.0 6.0 0.00 0.00 0.00 77 1021.6
20260903043517 62 142 4.0 6.0 0.00 0.00 0.00 76 1021.4
20260903042518 62 147 3.0 5.0 0.00 0.00 0.00 75 1021.3
20260903041130 62 148 4.0 6.0 0.00 0.00 0.00 75 1021.2
20260903040518 62 140 3.0 6.0 0.00 0.00 0.00 78 1021.3
20260903035518 62 151 3.0 5.0 0.00 0.00 0.00 77 1021.3
20260903034517 62 147 3.0 6.0 0.00 0.00 0.00 77 1021.1
20260903033517 62 149 4.0 5.0 0.00 0.00 0.00 77 1021.1
20260903032518 62 149 4.0 5.0 0.00 0.00 0.00 77 1021.2
20260903031131 61 146 3.0 6.0 0.00 0.00 0.00 79 1021.2
20260903030518 61 137 4.0 6.0 0.00 0.00 0.00 81 1021.2
20260903025518 61 137 4.0 6.0 0.00 0.00 0.00 80 1021.2
20260903024518 61 136 4.0 6.0 0.00 0.00 0.00 82 1021.2
20260903023518 61 140 4.0 6.0 0.00 0.00 0.00 82 1021.1
20260903022518 61 140 4.0 6.0 0.00 0.00 0.00 82 1021.0
20260903021130 61 141 3.0 4.0 0.00 0.00 0.00 83 1021.0
20260903020518 61 142 3.0 5.0 0.00 0.00 0.00 84 1021.0
20260903015518 61 136 4.0 6.0 0.00 0.00 0.00 84 1021.0
20260903014130 61 137 4.0 6.0 0.00 0.00 0.00 83 1020.9
20260903013517 61 141 3.0 5.0 0.00 0.00 0.00 82 1021.0
20260903012517 61 156 3.0 5.0 0.00 0.00 0.00 82 1021.0
20260903011131 61 187 2.0 6.0 0.00 0.00 0.00 82 1020.9
20260903010518 61 161 5.0 6.0 0.00 0.00 0.00 80 1020.7
20260903005518 61 149 4.0 6.0 0.00 0.00 0.00 80 1020.8
20260903004131 62 147 3.0 5.0 0.00 0.00 0.00 78 1020.7
20260903003518 61 157 4.0 7.0 0.00 0.00 0.00 79 1020.7
20260903002518 61 158 5.0 8.0 0.00 0.00 0.00 80 1020.7
20260903001530 62 171 4.0 7.0 0.00 0.00 0.00 79 1020.7
20260903000517 61 168 3.0 6.0 0.00 0.00 0.00 80 1020.8
20260902235517 61 164 3.0 5.0 0.00 0.00 0.00 79 1020.8
20260902234131 61 158 3.0 6.0 0.00 0.00 0.00 79 1020.8
20260902233517 61 155 4.0 7.0 0.00 0.00 0.00 80 1020.8
20260902232517 62 158 4.0 7.0 0.00 0.00 0.00 79 1020.8
20260902231518 61 151 3.0 6.0 0.00 0.00 0.00 79 1020.9
20260902230518 62 139 4.0 6.0 0.00 0.00 0.00 79 1020.8
20260902225518 62 145 4.0 7.0 0.00 0.00 0.00 78 1020.8
20260902224131 62 144 4.0 7.0 0.00 0.00 0.00 78 1020.8
20260902223518 62 153 3.0 5.0 0.00 0.00 0.00 78 1020.8
20260902222518 62 153 5.0 7.0 0.00 0.00 0.00 77 1020.6
20260902221131 63 152 5.0 7.0 0.00 0.00 0.00 76 1020.5
20260902220517 63 157 5.0 7.0 0.00 0.00 0.00 76 1020.4
20260902215517 63 156 4.0 6.0 0.00 0.00 0.00 78 1020.4
20260902214131 64 161 4.0 6.0 0.00 0.00 0.00 76 1020.2
20260902213517 63 166 4.0 6.0 0.00 0.00 0.00 76 1020.3
20260902211131 63 149 3.0 6.0 0.00 0.00 0.00 76 1020.3
20260902210518 64 149 4.0 6.0 0.00 0.00 0.00 74 1020.2
20260902205518 64 158 4.0 5.0 0.00 0.00 0.00 74 1020.2
20260902204132 64 143 3.0 5.0 0.00 0.00 0.00 75 1020.2
20260902203517 64 148 3.0 4.0 0.00 0.00 0.00 74 1020.1
20260902202518 65 148 3.0 4.0 0.00 0.00 0.00 72 1020.1
20260902201131 65 145 3.0 4.0 0.00 0.00 0.00 70 1020.1
20260902200518 66 145 3.0 5.0 0.00 0.00 0.00 68 1020.1
20260902195518 66 143 3.0 5.0 0.00 0.00 0.00 68 1019.9
20260902194131 67 146 2.0 3.0 0.00 0.00 0.00 65 1019.9
20260902193518 67 97 1.0 2.0 0.00 0.00 0.00 66 1019.7
20260902192517 67 73 1.0 2.0 0.00 0.00 0.00 66 1019.9
20260902191131 67 52 1.0 2.0 0.00 0.00 0.00 65 1019.9
20260902190517 68 120 1.0 3.0 0.00 0.00 0.00 63 1019.6
20260902185518 68 113 2.0 4.0 0.00 0.00 0.00 61 1019.3
20260902184131 69 122 2.0 3.0 0.00 0.00 0.00 59 1019.3
20260902183518 69 115 3.0 5.0 0.00 0.00 0.00 59 1019.0
20260902182518 69 109 3.0 5.0 0.00 0.00 0.00 58 1019.0
20260902181131 70 135 2.0 5.0 0.00 0.00 0.00 56 1018.7
20260902180518 70 89 1.0 5.0 0.00 0.00 0.00 56 1018.6
20260902175518 71 38 2.0 6.0 0.00 0.00 0.00 55 1018.6
20260902174131 72 49 4.0 7.0 0.00 0.00 0.00 52 1018.4
20260902173517 72 31 4.0 8.0 0.00 0.00 0.00 50 1018.3
20260902172518 72 338 2.0 6.0 0.00 0.00 0.00 49 1018.3
20260902171131 72 310 1.0 3.0 0.00 0.00 0.00 49 1018.2
20260902170518 73 288 2.0 4.0 0.00 0.00 0.00 47 1018.2
20260902165518 73 319 3.0 6.0 0.00 0.00 0.00 47 1018.2
20260902164131 74 313 3.0 6.0 0.00 0.00 0.00 45 1018.2
20260902163518 74 323 4.0 8.0 0.00 0.00 0.00 43 1018.0
20260902162518 75 314 3.0 8.0 0.00 0.00 0.00 44 1018.0
20260902161131 75 309 3.0 7.0 0.00 0.00 0.00 43 1017.9
20260902160517 76 290 2.0 8.0 0.00 0.00 0.00 42 1017.9
20260902155518 78 333 2.0 8.0 0.00 0.00 0.00 42 1017.8
20260902154131 77 278 3.0 9.0 0.00 0.00 0.00 42 1017.9
20260902153518 78 338 4.0 11.0 0.00 0.00 0.00 45 1017.8
20260902152517 78 304 4.0 11.0 0.00 0.00 0.00 43 1017.8
20260902151131 78 322 3.0 8.0 0.00 0.00 0.00 43 1017.7
20260902150518 78 325 5.0 11.0 0.00 0.00 0.00 43 1017.8
20260902145518 78 301 4.0 10.0 0.00 0.00 0.00 43 1017.8
20260902144131 77 305 4.0 10.0 0.00 0.00 0.00 44 1018.1
20260902143517 76 107 2.0 7.0 0.00 0.00 0.00 46 1018.3
20260902142518 77 90 2.0 7.0 0.00 0.00 0.00 45 1018.2
20260902141131 78 70 3.0 8.0 0.00 0.00 0.00 46 1017.9
20260902140518 76 22 4.0 10.0 0.00 0.00 0.00 45 1018.3
20260902135518 77 276 1.0 7.0 0.00 0.00 0.00 48 1018.2
20260902134129 76 359 2.0 9.0 0.00 0.00 0.00 47 1018.5
20260902133518 76 31 3.0 8.0 0.00 0.00 0.00 46 1018.4
20260902132518 75 12 4.0 10.0 0.00 0.00 0.00 45 1018.6
20260902131131 75 321 2.0 7.0 0.00 0.00 0.00 52 1018.7
20260902130518 75 319 3.0 10.0 0.00 0.00 0.00 49 1018.7
20260902125518 76 327 0.0 6.0 0.00 0.00 0.00 46 1018.6
20260902124130 74 311 3.0 8.0 0.00 0.00 0.00 45 1018.8
20260902123518 75 329 4.0 11.0 0.00 0.00 0.00 47 1018.9
20260902122518 75 321 3.0 10.0 0.00 0.00 0.00 46 1018.9
20260902121131 74 339 3.0 6.0 0.00 0.00 0.00 49 1019.1
20260902120517 74 346 2.0 7.0 0.00 0.00 0.00 52 1019.1
20260902115517 75 6 2.0 6.0 0.00 0.00 0.00 53 1019.1
20260902114131 75 323 3.0 7.0 0.00 0.00 0.00 52 1019.2
20260902113518 74 330 2.0 6.0 0.00 0.00 0.00 52 1019.2
20260902112518 74 332 4.0 7.0 0.00 0.00 0.00 51 1019.3
20260902111131 74 14 3.0 8.0 0.00 0.00 0.00 51 1019.4
20260902110518 74 335 3.0 7.0 0.00 0.00 0.00 49 1019.6
20260902105517 74 8 3.0 6.0 0.00 0.00 0.00 53 1019.6
20260902104131 74 41 2.0 6.0 0.00 0.00 0.00 49 1019.7
20260902103518 74 84 1.0 5.0 0.00 0.00 0.00 50 1019.7
20260902102517 74 32 2.0 5.0 0.00 0.00 0.00 49 1019.8
20260902101131 74 360 2.0 4.0 0.00 0.00 0.00 50 1019.9
20260902100518 73 303 3.0 9.0 0.00 0.00 0.00 49 1020.0
20260902095518 73 186 2.0 5.0 0.00 0.00 0.00 49 1020.0
20260902094131 73 262 2.0 4.0 0.00 0.00 0.00 50 1020.1
20260902093518 72 263 2.0 4.0 0.00 0.00 0.00 50 1020.1
20260902092518 73 216 1.0 4.0 0.00 0.00 0.00 50 1020.1
20260902091130 73 99 2.0 5.0 0.00 0.00 0.00 49 1020.2
20260902090518 72 104 2.0 5.0 0.00 0.00 0.00 53 1020.2
20260902084130 71 45 1.0 4.0 0.00 0.00 0.00 60 1020.6
20260902083518 70 353 1.0 5.0 0.00 0.00 0.00 58 1020.5
20260902082518 70 2 1.0 3.0 0.00 0.00 0.00 61 1020.5
20260902081130 69 77 1.0 3.0 0.00 0.00 0.00 60 1020.6
20260902080518 68 137 1.0 3.0 0.00 0.00 0.00 65 1020.9
20260902075518 67 145 2.0 6.0 0.00 0.00 0.00 68 1021.0
20260902074131 66 150 3.0 6.0 0.00 0.00 0.00 69 1020.9
20260902073517 65 151 3.0 6.0 0.00 0.00 0.00 70 1021.0
20260902072518 64 143 3.0 7.0 0.00 0.00 0.00 73 1021.1
20260902071331 63 135 3.0 7.0 0.00 0.00 0.00 74 1021.1
20260902070517 62 160 3.0 6.0 0.00 0.00 0.00 77 1021.3
20260902065517 61 156 3.0 6.0 0.00 0.00 0.00 77 1021.3